Location: Mohawk View
(42.7837°N, 73.7885°W)
Time: 10:51:37
(UTC+00:00)

SPOT 1/Viking Rocket - Pass Details

Date: 17 June 2021
Orbit: 778 x 793 km, 98.4° (Epoch: 26 July)

Event Time Altitude Azimuth Distance (km) Brightness Sun altitude
Exits shadow 02:06:51 14° 172° (S) 2,067 5.2 -13.2°
Maximum altitude 02:11:19 75° 257° (WSW) 810 3.7 -13.7°
Drops below altitude 10° 02:16:29 10° 343° (NNW) 2,338 7.2 -14.3°
Sets 02:18:49 0° 345° (NNW) 3,271 8.1 -14.6°
